Change the Weather History Date:

Saturday, April 6, 2013

  Actual Average Record
Temperature  
Mean Temperature 24 °F -  
Max Temperature 28 °F 42 °F 56 °F (1980)
Min Temperature 21 °F 23 °F -1 °F (1986)
Degree Days  
Heating Degree Days 41    
Moisture  
Dew Point 19 °F    
Average Humidity 80    
Maximum Humidity 100    
Minimum Humidity 35    
Precipitation  
Precipitation 0.13 in - - ()
Sea Level Pressure  
Sea Level Pressure 29.46 in    
Wind  
Wind Speed 7 mph (West)    
Max Wind Speed 18 mph    
Max Gust Speed 24 mph    
Visibility 4 miles    
Events Fog , Snow    
Averages and records for this station are not official NWS values.
T = Trace of Precipitation, MM = Missing Value Source: NWS Daily Summary

Daily Weather History Graph

Daily Weather History Graph

Search for Another Location

Airport or City:

Trip Planner

Search our weather history database for the weather conditions in past years. The results will help you decide how hot, cold, wet, or windy it might be!

Date:

Astronomy

Apr. 06, 2013 Rise Set
Actual Time 7:01 AM AKDT 8:57 PM AKDT
Civil Twilight 6:15 AM AKDT 9:44 PM AKDT
Nautical Twilight 5:14 AM AKDT 10:45 PM AKDT
Astronomical Twilight 3:57 AM AKDT 12:04 AM AKDT
Moon 5:49 AM AKDT (4/6) 4:45 PM AKDT (4/6)
Length of Visible Light 15h 29m
Length of Day
13h 55m
Waning Crescent, 14% of the Moon is Illuminated
Apr 6
Waning Crescent
Apr 10
New
Apr 18
First Quarter
Apr 25
Full
May 2
Last Quarter

Hourly Weather History & Observations

Time (AKDT) Temp. Windchill Dew Point Humidity Pressure Visibility Wind Dir Wind Speed Gust Speed Precip Events Conditions
12:53 AM 26.1 °F 16.2 °F 3.9 °F 39% 29.49 in 10.0 mi NNE 10.4 mph 19.6 mph N/A   Overcast
1:53 AM 26.1 °F 12.7 °F 1.9 °F 35% 29.48 in 10.0 mi NNE 18.4 mph 24.2 mph N/A   Overcast
2:53 AM 24.1 °F 12.5 °F 3.0 °F 40% 29.47 in 10.0 mi NNE 12.7 mph 23.0 mph N/A   Overcast
3:53 AM 24.1 °F 13.7 °F 3.0 °F 40% 29.47 in 10.0 mi NE 10.4 mph - N/A   Overcast
4:19 AM 23.0 °F 10.6 °F 5.0 °F 46% 29.45 in 10.0 mi NE 13.8 mph - N/A   Overcast
4:31 AM 23.0 °F 13.9 °F 8.6 °F 54% 29.45 in 8.0 mi NE 8.1 mph - 0.00 in Snow Light Snow
4:53 AM 21.9 °F 11.7 °F 8.1 °F 55% 29.46 in 10.0 mi NNE 9.2 mph - 0.00 in   Overcast
5:53 AM 21.9 °F 9.8 °F 9.0 °F 58% 29.45 in 10.0 mi NNE 12.7 mph - N/A   Overcast
6:53 AM 21.0 °F 8.6 °F 10.0 °F 63% 29.44 in 10.0 mi NNE 12.7 mph - N/A   Overcast
7:53 AM 21.9 °F 12.5 °F 7.0 °F 53% 29.44 in 10.0 mi NNE 8.1 mph - N/A   Overcast
8:53 AM 23.0 °F 15.8 °F 10.9 °F 60% 29.43 in 10.0 mi North 5.8 mph - N/A   Overcast
9:53 AM 24.1 °F - 15.1 °F 69% 29.43 in 10.0 mi Calm Calm - N/A   Overcast
10:53 AM 24.1 °F 18.2 °F 15.1 °F 69% 29.44 in 10.0 mi South 4.6 mph - N/A   Overcast
11:53 AM 24.1 °F 17.0 °F 16.0 °F 71% 29.45 in 10.0 mi SSW 5.8 mph - N/A   Overcast
12:53 PM 24.1 °F 17.0 °F 16.0 °F 71% 29.47 in 8.0 mi SSW 5.8 mph - N/A   Overcast
1:16 PM 23.0 °F 17.0 °F 19.4 °F 86% 29.46 in 4.0 mi SW 4.6 mph - 0.00 in Snow Light Snow
1:28 PM 23.0 °F 14.7 °F 19.4 °F 86% 29.46 in 2.0 mi SW 6.9 mph - 0.00 in Snow Light Snow
1:53 PM 24.1 °F 18.2 °F 19.9 °F 84% 29.47 in 2.0 mi WSW 4.6 mph - 0.00 in Snow Light Snow
2:00 PM 24.8 °F 17.9 °F 19.4 °F 80% 29.46 in 1.2 mi WSW 5.8 mph - 0.00 in Snow Light Snow
2:53 PM 25.0 °F 18.1 °F 19.9 °F 81% 29.47 in 1.0 mi WSW 5.8 mph - 0.00 in Snow Light Snow
3:09 PM 26.6 °F 21.2 °F 21.2 °F 80% 29.46 in 0.8 mi West 4.6 mph - 0.00 in Snow Light Snow
3:37 PM 24.8 °F 20.5 °F 21.2 °F 86% 29.45 in 1.2 mi West 3.5 mph - 0.00 in Snow Light Snow
3:53 PM 26.1 °F - 21.9 °F 84% 29.47 in 1.5 mi Calm Calm - 0.00 in Snow Light Snow
4:14 PM 26.6 °F 22.6 °F 21.2 °F 80% 29.45 in 2.0 mi NNW 3.5 mph - 0.00 in Snow Light Snow
4:26 PM 26.6 °F 21.2 °F 21.2 °F 80% 29.45 in 4.0 mi NNW 4.6 mph - 0.00 in Snow Light Snow
4:53 PM 27.0 °F 23.0 °F 21.9 °F 81% 29.46 in 4.0 mi NW 3.5 mph - 0.00 in Snow Light Snow
5:27 PM 26.6 °F 21.2 °F 23.0 °F 86% 29.45 in 2.5 mi West 4.6 mph - 0.00 in Snow Light Snow
5:42 PM 26.6 °F 22.6 °F 24.8 °F 93% 29.45 in 1.5 mi West 3.5 mph - 0.00 in Snow Light Snow
5:47 PM 26.6 °F - 24.8 °F 93% 29.45 in 1.2 mi Calm Calm - 0.00 in Snow Light Snow
5:53 PM 27.0 °F - 24.1 °F 89% 29.46 in 1.2 mi Calm Calm - 0.00 in Snow Light Snow
6:36 PM 26.6 °F 20.0 °F 24.8 °F 93% 29.45 in 1.2 mi WSW 5.8 mph - 0.01 in Snow Light Snow
6:50 PM 26.6 °F 21.2 °F 24.8 °F 93% 29.45 in 1.5 mi WSW 4.6 mph - 0.01 in Snow Light Snow
6:53 PM 26.1 °F 20.5 °F 24.1 °F 92% 29.46 in 1.8 mi WSW 4.6 mph - 0.01 in Snow Light Snow
6:55 PM 26.6 °F 22.6 °F 24.8 °F 93% 29.45 in 2.0 mi WSW 3.5 mph - 0.00 in Snow Light Snow
7:04 PM 26.6 °F 21.2 °F 24.8 °F 93% 29.45 in 3.0 mi WSW 4.6 mph - 0.00 in Snow Light Snow
7:12 PM 26.6 °F 21.2 °F 24.8 °F 93% 29.45 in 1.8 mi WSW 4.6 mph - 0.00 in Snow Light Snow
7:32 PM 26.6 °F 20.0 °F 24.8 °F 93% 29.45 in 0.5 mi WSW 5.8 mph - 0.00 in Fog , Snow Snow
7:53 PM 25.0 °F 17.1 °F 24.1 °F 96% 29.47 in 0.5 mi WSW 6.9 mph - 0.00 in Fog , Snow Snow
8:29 PM 24.8 °F 20.5 °F 24.8 °F 100% 29.46 in 0.2 mi WSW 3.5 mph - 0.02 in Fog , Snow Heavy Snow
8:50 PM 24.8 °F 20.5 °F 24.8 °F 100% 29.46 in 0.2 mi West 3.5 mph - 0.04 in Fog , Snow Heavy Snow
8:53 PM 25.0 °F 20.7 °F 24.1 °F 96% 29.48 in 0.2 mi West 3.5 mph - 0.04 in Fog , Snow Heavy Snow
9:21 PM 24.8 °F - 23.0 °F 93% 29.47 in 1.0 mi Calm Calm - 0.01 in Snow Light Snow
9:28 PM 24.8 °F - 23.0 °F 93% 29.47 in 1.2 mi Calm Calm - 0.01 in Snow Light Snow
9:48 PM 24.8 °F - 23.0 °F 93% 29.47 in 1.5 mi Calm Calm - 0.02 in Snow Light Snow
9:53 PM 25.0 °F - 23.0 °F 92% 29.48 in 1.5 mi Calm Calm - 0.02 in Snow Light Snow
10:08 PM 24.8 °F - 23.0 °F 93% 29.47 in 0.8 mi Calm Calm - 0.00 in Snow Light Snow
10:46 PM 24.8 °F - 23.0 °F 93% 29.47 in 1.2 mi Calm Calm - 0.02 in Snow Light Snow
10:53 PM 24.1 °F 19.7 °F 23.0 °F 96% 29.49 in 0.8 mi SW 3.5 mph - 0.03 in Snow Light Snow
11:24 PM 24.8 °F 20.5 °F 23.0 °F 93% 29.48 in 1.0 mi SSW 3.5 mph - 0.02 in Snow Light Snow
11:33 PM 24.8 °F - 23.0 °F 93% 29.48 in 0.8 mi Calm Calm - 0.02 in Snow Light Snow
11:40 PM 24.8 °F - 23.0 °F 93% 29.49 in 1.0 mi Calm Calm - 0.02 in Snow Light Snow
11:53 PM 24.1 °F - 23.0 °F 96% 29.50 in 1.5 mi Calm Calm - 0.03 in Snow Light Snow